Weather History for Meriden, CT

Change the Weather History Date:

Thursday, November 8, 2012

  Actual Average (KHVN) Record (KHVN)
Temperature  
Mean Temperature 38 °F -  
Max Temperature 43 °F 51 °F 69 °F (1996)
Min Temperature 32 °F 37 °F 27 °F (2007)
Degree Days  
Heating Degree Days 28    
Moisture  
Dew Point 29 °F    
Average Humidity 75    
Maximum Humidity 87    
Minimum Humidity 56    
Precipitation  
Precipitation 0.05 in - - ()
Sea Level Pressure  
Sea Level Pressure 29.73 in    
Wind  
Wind Speed 15 mph (NNW)    
Max Wind Speed 20 mph    
Max Gust Speed 32 mph    
Visibility 6 miles    
Events Rain , Snow    
Averages and records for this station are not official NWS values.
T = Trace of Precipitation, MM = Missing Value Source: NWS Daily Summary

Daily Weather History Graph

Daily Weather History Graph

Search for Another Location

Airport:

Trip Planner

Search our weather history database for the weather conditions in past years. The results will help you decide how hot, cold, wet, or windy it might be!

Date:

Astronomy

Nov. 08, 2012 Rise Set
Actual Time 6:32 AM EST 4:37 PM EST
Civil Twilight 6:02 AM EST 5:06 PM EST
Nautical Twilight 5:29 AM EST 5:39 PM EST
Astronomical Twilight 4:57 AM EST 6:12 PM EST
Moon 12:20 AM EST (11/8) 1:20 PM EST (11/8)
Length of Visible Light 11h 04m
Length of Day
10h 05m
Waning Crescent, 33% of the Moon is Illuminated
Nov 8
Waning Crescent
Nov 13
New
Nov 20
First Quarter
Nov 28
Full
Dec 6
Last Quarter

Hourly Weather History & Observations

Time (EST) Temp. Windchill Dew Point Humidity Pressure Visibility Wind Dir Wind Speed Gust Speed Precip Events Conditions
12:02 AM 32.0 °F 20.5 °F 28.4 °F 87% 29.73 in 2.0 mi North 18.4 mph 25.3 mph 0.00 in Snow Light Snow
12:24 AM 32.0 °F 20.8 °F 28.4 °F 87% 29.73 in 1.8 mi North 17.3 mph 27.6 mph 0.00 in Snow Light Snow
12:53 AM 32.0 °F 21.6 °F 28.0 °F 85% 29.72 in 1.2 mi North 15.0 mph 25.3 mph 0.00 in Snow Light Snow
1:14 AM 32.0 °F 22.1 °F 28.4 °F 87% 29.72 in 2.0 mi North 13.8 mph 25.3 mph 0.00 in Snow Light Snow
1:37 AM 33.8 °F 23.9 °F 28.4 °F 81% 29.72 in 1.8 mi North 15.0 mph 26.5 mph 0.00 in Snow Light Snow
1:53 AM 33.1 °F 21.5 °F 28.0 °F 82% 29.72 in 1.8 mi North 19.6 mph 24.2 mph 0.01 in Snow Light Snow
2:53 AM 33.1 °F 23.0 °F 28.9 °F 85% 29.72 in 1.5 mi North 15.0 mph 21.9 mph 0.00 in Snow Light Snow
3:20 AM 33.8 °F 24.3 °F 28.4 °F 81% 29.71 in 3.0 mi North 13.8 mph 20.7 mph 0.00 in Snow Light Snow
3:27 AM 33.8 °F 25.3 °F 28.4 °F 81% 29.71 in 2.5 mi North 11.5 mph 21.9 mph 0.00 in Snow Light Snow
3:53 AM 33.1 °F 22.2 °F 28.9 °F 85% 29.72 in 1.2 mi North 17.3 mph 32.2 mph 0.00 in Snow Light Snow
4:02 AM 33.8 °F 25.3 °F 30.2 °F 87% 29.71 in 1.0 mi North 11.5 mph 26.5 mph 0.01 in Snow Light Snow
4:53 AM 34.0 °F 25.5 °F 30.0 °F 85% 29.71 in 3.0 mi North 11.5 mph 21.9 mph 0.02 in Snow Light Snow
5:00 AM 33.8 °F 25.8 °F 30.2 °F 87% 29.70 in 3.0 mi North 10.4 mph 21.9 mph 0.00 in Snow Light Snow
5:14 AM 33.8 °F 25.8 °F 30.2 °F 87% 29.70 in 6.0 mi NNW 10.4 mph 23.0 mph 0.00 in Snow Light Snow
5:24 AM 33.8 °F 24.8 °F 30.2 °F 87% 29.70 in 4.0 mi North 12.7 mph 23.0 mph 0.00 in Snow Light Snow
5:34 AM 33.8 °F 22.5 °F 30.2 °F 87% 29.70 in 2.5 mi North 19.6 mph 31.1 mph 0.01 in Snow Light Snow
5:41 AM 33.8 °F 24.8 °F 30.2 °F 87% 29.70 in 4.0 mi North 12.7 mph 31.1 mph 0.01 in Snow Light Snow
5:53 AM 35.1 °F 26.9 °F 28.9 °F 78% 29.70 in 8.0 mi North 11.5 mph 29.9 mph 0.01 in Snow Light Snow
6:53 AM 35.1 °F 25.2 °F 30.0 °F 82% 29.70 in 10.0 mi North 16.1 mph 23.0 mph 0.01 in Rain Light Rain
7:53 AM 37.9 °F 30.9 °F 28.0 °F 68% 29.72 in 10.0 mi North 10.4 mph 27.6 mph 0.00 in   Overcast
8:53 AM 39.0 °F 31.0 °F 28.0 °F 65% 29.71 in 10.0 mi NNW 13.8 mph 28.8 mph N/A   Overcast
9:53 AM 39.0 °F 31.8 °F 28.0 °F 65% 29.71 in 10.0 mi NNW 11.5 mph - N/A   Overcast
10:53 AM 41.0 °F 33.9 °F 28.9 °F 62% 29.70 in 10.0 mi North 12.7 mph 31.1 mph 0.00 in Rain Light Rain
11:53 AM 42.1 °F 34.5 °F 30.0 °F 62% 29.69 in 10.0 mi North 15.0 mph 21.9 mph 0.00 in   Overcast
12:53 PM 42.1 °F 34.5 °F 30.0 °F 62% 29.69 in 10.0 mi NNW 15.0 mph 23.0 mph N/A   Overcast
1:53 PM 42.1 °F 34.9 °F 30.0 °F 62% 29.70 in 10.0 mi NNW 13.8 mph 21.9 mph 0.00 in Rain Light Rain
2:53 PM 43.0 °F 37.2 °F 28.0 °F 56% 29.71 in 10.0 mi NNW 10.4 mph - 0.00 in   Overcast
3:53 PM 42.1 °F 35.2 °F 28.0 °F 58% 29.74 in 10.0 mi NNW 12.7 mph 19.6 mph N/A   Overcast
4:53 PM 41.0 °F 34.7 °F 28.9 °F 62% 29.76 in 10.0 mi NNW 10.4 mph 24.2 mph N/A   Overcast
5:53 PM 39.9 °F 32.1 °F 28.0 °F 63% 29.79 in 10.0 mi North 13.8 mph 24.2 mph N/A   Overcast
6:53 PM 39.0 °F 30.6 °F 28.0 °F 65% 29.81 in 10.0 mi North 15.0 mph 21.9 mph N/A   Overcast
7:53 PM 39.0 °F 31.4 °F 28.0 °F 65% 29.81 in 10.0 mi NNW 12.7 mph 21.9 mph N/A   Overcast
8:53 PM 39.0 °F 30.6 °F 28.9 °F 67% 29.83 in 10.0 mi NNW 15.0 mph 25.3 mph N/A   Overcast
9:53 PM 39.0 °F 31.0 °F 28.0 °F 65% 29.83 in 10.0 mi NNW 13.8 mph 20.7 mph N/A   Overcast
10:53 PM 39.0 °F 32.3 °F 28.0 °F 65% 29.85 in 10.0 mi NNW 10.4 mph 19.6 mph N/A   Overcast
11:53 PM 39.0 °F 31.4 °F 28.0 °F 65% 29.85 in 10.0 mi NNW 12.7 mph 21.9 mph N/A   Overcast